STARLINK-3322 (50838 NORAD) Tracking and Keplerian Element Data

This shows tracking and keplerian element data for the satellite.

Feedback or suggestion? Click here.




ElementValue
Catalog50838
NameSTARLINK-3322
Epoch Orbit375
Epoch Day22.91667824
Epoch Year2022
RAAN119.7438
Inclination53.2175
Eccentricity0.0001
Argument of Perigee79.2458
Mean Anonmoly243.897
Mean Motion15.75427149
Decay Rate-0.00821
L11 50838U 22001AM 22022.91667824 -.00821000 00000+0 -58450-2 0 9996
L22 50838 53.2175 119.7438 0001000 79.2458 243.8970 15.75427149 3751

Live tracking and technical data element details for STARLINK-3322 (NORAD 50838). STARLINK-3322 can be tracked NOW for your location showing map with azimuth and elevation plus other details from your city location.

Track the satellite on the map from your city or location and see movement details for azimuth, elevation, latitude, longitude, range, height, and movement on the map or in text.







IsCatalogInMostPopularTable: catalog: 50838, numindb: 3
Update: records affected: 1



GetName: 50838 STARLINK-3322

Hit Count: updated at: Mon, 24 Jan 2022 00:14:22 GMT